2025-199E

Last updated on Sat Sep 13 2025 00:02:08 GMT+0000 (Coordinated Universal Time)

1 65548U 25199E 25255.34797752 .00000179 00000+0 65595-4 0 9997 2 65548 85.9961 168.7612 0010004 252.2182 107.7918 14.26934816 777
UTC large
Height (km)
Speed (km/s)
/
Latitude / Longitude
Inclination (degrees)
Orbital Period (minutes)
Azimuth
Elevation
Range (km)
Doppler Factor

Next 0 passes for location: London (51.5072 / 0.1276)

Sorry there are no passes over London.